YAMAL 402

Last updated on Sun Oct 26 2025 00:02:56 GMT+0000 (Coordinated Universal Time)

1 39022U 12070A 25297.77256374 .00000099 00000+0 00000+0 0 9998 2 39022 0.6565 87.2845 0003878 127.0313 152.1550 1.00270984 47031
UTC large
Height (km)
Speed (km/s)
/
Latitude / Longitude
Inclination (degrees)
Orbital Period (minutes)
Azimuth
Elevation
Range (km)
Doppler Factor

Next 0 passes for location: London (51.5072 / 0.1276)

Sorry there are no passes over London.